File timestamp: Sat Sep 17 00:00:00 2016, Internal temp: 17.7764892578125
1474070401, -0.0584959127008915, -0.0765486881136894, 0.0991436392068863, 32776, 31949, 23248, 165.441070556641
1474070401, -0.0514848865568638, -0.0758327767252922, 0.0984729677438736, 32767, 31953, 23294, NaN
1474070402.002, -0.0442051477730274, -0.0751095712184906, 0.098654143512249, 32784, 31958, 23299, NaN
1474070403.002, -0.0368357114493847, -0.0749702826142311, 0.0989622622728348, 32773, 31966, 23296, NaN
1474070404.002, -0.0295311342924833, -0.0752928033471107, 0.0987441539764404, 32747, 31957, 23280, NaN
1474070405.002, -0.0224226471036673, -0.0757339298725128, 0.0985052734613419, 32772, 31950, 23273, NaN
1474070405.002, -0.0156194679439068, -0.0762741267681122, 0.0987298861145973, 32772, 31936, 23282, NaN
1474070406.004, -0.00921019725501537, -0.0760061964392662, 0.0996019840240479, 32772, 31944, 23291, NaN
1474070407.004, -0.00326432404108346, -0.076225534081459, 0.0995086655020714, 32774, 31941, 23259, NaN
1474070408.004, 0.00216622184962034, -0.0757019370794296, 0.0999068692326546, 32771, 31950, 23273, NaN
1474070409.004, 0.00704546645283699, -0.0749444738030434, 0.10053663700819, 32772, 31956, 23295, NaN
1474070410.004, 0.0113517856225371, -0.0747421160340309, 0.101364098489285, 32771, 31957, 23290, NaN
1474070411.012, 0.015076301060617, -0.0750681608915329, 0.101615503430367, 32773, 31953, 23293, NaN
1474070412.012, 0.0159415174275637, -0.0752953514456749, 0.101356320083141, 32773, 31954, 23306, NaN
1474070413.012, 0.0127229169011116, -0.0766672641038895, 0.101875938475132, 32780, 31946, 23275, NaN
1474070414.012, 0.0132430968806148, -0.0772008150815964, 0.102762460708618, 32769, 31958, 23257, NaN
1474070415.012, 0.0242280680686235, -0.0765925645828247, 0.10401926189661, 32748, 31935, 23284, NaN
1474070416.012, 0.0312057454138994, -0.0766972973942757, 0.104358799755573, 32762, 31958, 23303, NaN
1474070417.012, 0.0229301284998655, -0.0769555270671844, 0.104617826640606, 32764, 31978, 23311, NaN
1474070418.012, 0.000445986923296005, -0.0764496847987175, 0.103903621435165, 32779, 31950, 23294, NaN
1474070419.012, -0.0192633960396051, -0.0766421854496002, 0.103214040398598, 32767, 31959, 23278, NaN
1474070420.012, -0.0308305379003286, -0.0765507221221924, 0.103001520037651, 32773, 31946, 23290, NaN
1474070421.012, -0.0374713055789471, -0.075992651283741, 0.102702237665653, 32774, 31951, 23278, NaN
1474070422.012, -0.0403149873018265, -0.0759571418166161, 0.102939173579216, 32767, 31953, 23276, NaN
1474070423.012, -0.0356673337519169, -0.075510747730732, 0.103018932044506, 32768, 31955, 23284, NaN
1474070424.012, -0.0307878702878952, -0.0748886466026306, 0.102109052240849, 32778, 31953, 23287, NaN
1474070425.012, -0.0291110388934612, -0.0745564252138138, 0.101363390684128, 32777, 31951, 23285, NaN
1474070426.012, -0.0297286920249462, -0.074496790766716, 0.100748904049397, 32772, 31950, 23295, NaN
1474070427.012, -0.0260728783905506, -0.0753196105360985, 0.100571915507317, 32767, 31966, 23266, NaN
1474070428.012, -0.0184559002518654, -0.0749063044786453, 0.100247979164124, 32763, 31942, 23282, NaN
1474070429.012, -0.00542144570499659, -0.0748851522803307, 0.100241504609585, 32779, 31958, 23266, NaN
1474070430.012, 0.0127316806465387, -0.0745139569044113, 0.0997738614678383, 32773, 31948, 23276, NaN
1474070431.012, 0.0300395637750626, -0.074400819838047, 0.100189194083214, 32764, 31959, 23292, NaN
1474070432.012, 0.0385953038930893, -0.0736580118536949, 0.100183337926865, 32773, 31971, 23293, NaN
1474070433.012, 0.0410986542701721, -0.073085606098175, 0.100496105849743, 32792, 31955, 23267, NaN
1474070434.012, 0.0448007546365261, -0.0733190104365349, 0.10044651478529, 32791, 31959, 23271, NaN
1474070435.012, 0.0503381788730621, -0.0737575814127922, 0.100205473601818, 32778, 31952, 23278, NaN
1474070436.012, 0.0572492592036724, -0.0741958767175674, 0.0999623164534569, 32772, 31965, 23283, NaN
1474070437.012, 0.0633652880787849, -0.0748820230364799, 0.0996184125542641, 32764, 31961, 23281, NaN
1474070438.012, 0.0698256343603134, -0.0746006816625595, 0.099778912961483, 32758, 31958, 23299, NaN
1474070439.012, 0.0740062370896339, -0.0751467794179916, 0.0997486636042595, 32786, 31946, 23279, NaN
1474070440.022, 0.0752692222595215, -0.0750149041414261, 0.100216574966908, 32772, 31957, 23290, NaN
1474070441.022, 0.0719271600246429, -0.0747644081711769, 0.10111353546381, 32748, 31951, 23258, NaN
1474070442.022, 0.0699428915977478, -0.0750247836112976, 0.101119741797447, 32764, 31955, 23281, NaN
1474070443.022, 0.0669098347425461, -0.074626661837101, 0.101575873792171, 32761, 31963, 23299, NaN
1474070443.022, 0.0635335892438889, -0.0745193660259247, 0.101159155368805, 32785, 31966, 23287, NaN
1474070444.03, 0.0576234571635723, -0.0756739601492882, 0.101412251591682, 32786, 31967, 23279, NaN
1474070445.03, 0.0498359724879265, -0.0755119472742081, 0.101305484771729, 32778, 31958, 23285, NaN
1474070446.03, 0.0415782816708088, -0.0751954913139343, 0.10139873623848, 32772, 31950, 23290, NaN
1474070447.03, 0.0345625020563602, -0.0757849290966988, 0.102146953344345, 32758, 31957, 23290, NaN
1474070447.03, 0.0314453430473804, -0.0757542699575424, 0.102390170097351, 32762, 31956, 23273, NaN
1474070448.036, 0.0304815825074911, -0.0758687704801559, 0.102387599647045, 32748, 31968, 23302, NaN
1474070449.036, 0.0220081228762865, -0.0763097926974297, 0.103117570281029, 32770, 31972, 23289, NaN
1474070450.036, 0.0103503651916981, -0.0759106054902077, 0.102491118013859, 32778, 31958, 23280, NaN
1474070451.036, 0.00142968015279621, -0.0755380839109421, 0.10278332233429, 32778, 31959, 23275, NaN
1474070451.036, -0.00612115720286965, -0.0759236887097359, 0.103058941662312, 32775, 31962, 23279, NaN
1474070452.04, -0.0100384196266532, -0.0762002021074295, 0.10269732773304, 32764, 31965, 23277, NaN
1474070453.04, -0.0082868654280901, -0.0760586112737656, 0.102805808186531, 32770, 31957, 23274, NaN
1474070454.04, -0.00148608477320522, -0.0748860910534859, 0.10345733165741, 32776, 31957, 23269, NaN
1474070455.04, 0.00031192839378491, -0.0742900744080544, 0.104091227054596, 32763, 31946, 23308, NaN
1474070455.04, -0.0143909370526671, -0.0746406465768814, 0.104663789272308, 32755, 31971, 23299, 167.27815246582
1474070456.042, -0.0351323895156384, -0.0746578350663185, 0.10482794046402, 32766, 31966, 23288, NaN
1474070457.042, -0.0481465123593807, -0.0752513185143471, 0.104703761637211, 32766, 31957, 23293, NaN
1474070458.042, -0.052778210490942, -0.075225904583931, 0.104477912187576, 32776, 31960, 23278, NaN
1474070459.042, -0.0519821494817734, -0.0740591734647751, 0.104174911975861, 32766, 31962, 23282, NaN
1474070460.042, -0.048125397413969, -0.0746668726205826, 0.103988148272038, 32770, 31952, 23281, NaN
1474070461.042, -0.0428240746259689, -0.0738993138074875, 0.104056350886822, 32768, 31973, 23284, NaN
1474070462.042, -0.0390380136668682, -0.0738720819354057, 0.104494743049145, 32782, 31971, 23280, NaN
1474070463.042, -0.0394370853900909, -0.0732145756483078, 0.104324467480183, 32791, 31978, 23277, NaN
1474070464.042, -0.0438546277582645, -0.0741285011172295, 0.104441836476326, 32780, 31966, 23292, NaN
1474070465.042, -0.0493908822536469, -0.0742779746651649, 0.104815170168877, 32787, 31977, 23280, NaN
1474070466.05, -0.0566135942935944, -0.0744659900665283, 0.105042167007923, 32779, 31964, 23283, NaN
1474070467.05, -0.0567310862243176, -0.0748049393296242, 0.104847721755505, 32759, 31968, 23271, NaN
1474070468.05, -0.0430304855108261, -0.0747300386428833, 0.104871422052383, 32758, 31949, 23260, NaN
1474070469.05, -0.0189939793199301, -0.073955774307251, 0.104899331927299, 32762, 31963, 23296, NaN
1474070470.05, -0.0105622373521328, -0.0722260698676109, 0.104229867458344, 32786, 31982, 23299, NaN
1474070471.05, -0.0214402657002211, -0.0731656700372696, 0.104137055575848, 32778, 31964, 23292, NaN
1474070472.05, -0.0297228880226612, -0.0734261870384216, 0.104822032153606, 32775, 31952, 23275, NaN
1474070473.05, -0.0256602000445127, -0.0738636180758476, 0.105729326605797, 32786, 31957, 23274, NaN
1474070474.05, -0.0148289036005735, -0.0744884386658669, 0.106129162013531, 32770, 31961, 23288, NaN
1474070475.05, -0.00510450731962919, -0.0743936821818352, 0.106529735028744, 32764, 31964, 23273, NaN
1474070476.05, 0.00390571868047118, -0.0742862746119499, 0.108133897185326, 32767, 31965, 23275, NaN
1474070477.05, 0.0128673957660794, -0.0744160488247871, 0.107644774019718, 32761, 31959, 23274, NaN
1474070478.05, 0.015809390693903, -0.0748995542526245, 0.107064388692379, 32777, 31975, 23288, NaN
1474070479.05, 0.0108484765514731, -0.0750262811779976, 0.106957256793976, 32788, 31967, 23295, NaN
1474070480.05, 0.00364402495324612, -0.0753167718648911, 0.10600870847702, 32790, 31973, 23280, NaN
1474070481.05, -0.00152565259486437, -0.0753232836723328, 0.105832956731319, 32770, 31956, 23287, NaN
1474070482.05, -0.00311465840786695, -0.0757956132292747, 0.106612905859947, 32775, 31964, 23287, NaN
1474070483.05, -0.00285496469587088, -0.0761048495769501, 0.107199132442474, 32765, 31952, 23281, NaN
1474070484.05, 0.000561180582735687, -0.0752573907375336, 0.106872491538525, 32770, 31975, 23274, NaN
1474070485.05, 0.00723715545609593, -0.0753432288765907, 0.107047125697136, 32771, 31976, 23275, NaN
1474070486.05, 0.0173813998699188, -0.0756032094359398, 0.10679579526186, 32780, 31962, 23284, NaN
1474070487.05, 0.0252967569977045, -0.0764365717768669, 0.107032164931297, 32786, 31970, 23285, NaN
1474070488.05, 0.0279596261680126, -0.0762255042791367, 0.10676334798336, 32785, 31971, 23288, NaN
1474070489.05, 0.0242848433554173, -0.0755108669400215, 0.107228465378284, 32776, 31975, 23289, NaN
1474070490.05, 0.0178835093975067, -0.0752586871385574, 0.107521206140518, 32775, 31966, 23286, NaN
1474070491.05, 0.0135173751041293, -0.0751832276582718, 0.10793075710535, 32764, 31955, 23289, NaN
1474070492.05, 0.0116712497547269, -0.0755355805158615, 0.108099736273289, 32775, 31964, 23290, NaN
1474070493.05, 0.0116584682837129, -0.0757410079240799, 0.108117431402206, 32782, 31968, 23263, NaN
1474070494.05, 0.0154446382075548, -0.0761562362313271, 0.108744695782661, 32768, 31972, 23272, NaN
1474070495.058, 0.0220606606453657, -0.0756092071533203, 0.10888110101223, 32783, 31969, 23284, NaN
1474070496.058, 0.0288858450949192, -0.0750757232308388, 0.108262903988361, 32781, 31973, 23262, NaN
1474070497.058, 0.0343240238726139, -0.0756121948361397, 0.107492111623287, 32776, 31964, 23294, NaN
1474070498.058, 0.0315582491457462, -0.0758322700858116, 0.10753022134304, 32770, 31963, 23283, NaN
1474070498.058, 0.0255710259079933, -0.0751164704561234, 0.107130199670792, 32780, 31987, 23283, NaN
1474070499.066, 0.019305519759655, -0.0752477049827576, 0.1068464666605, 32756, 31963, 23286, NaN
1474070500.066, 0.0121599333360791, -0.0753070712089539, 0.10587103664875, 32777, 31964, 23284, NaN
1474070501.066, 0.0052312146872282, -0.0745630189776421, 0.105626605451107, 32781, 31967, 23276, NaN
1474070502.066, -6.35462638456374e-05, -0.074181854724884, 0.106235772371292, 32776, 31961, 23278, NaN
1474070502.066, -0.00488878926262259, -0.0739830583333969, 0.105336755514145, 32785, 31973, 23280, NaN
1474070503.072, -0.0129969669505954, -0.0734233185648918, 0.10588600486517, 32775, 31983, 23290, NaN
1474070504.072, -0.0191145651042461, -0.0739582851529121, 0.106013499200344, 32775, 31970, 23271, NaN
1474070505.072, -0.0210988391190767, -0.0743516683578491, 0.106578521430492, 32775, 31968, 23268, NaN
1474070506.072, -0.0138009088113904, -0.0744700655341148, 0.106582053005695, 32760, 31970, 23290, NaN
1474070506.072, -0.00428174016997218, -0.0745901018381119, 0.107224509119987, 32768, 31972, 23289, NaN
1474070507.076, -0.00256754574365914, -0.0752997323870659, 0.107345066964626, 32763, 31970, 23292, NaN
1474070508.076, -0.0063219009898603, -0.0754122957587242, 0.108029074966908, 32768, 31975, 23288, NaN
1474070509.076, -0.00998043175786734, -0.0757700428366661, 0.107459522783756, 32764, 31979, 23284, NaN
1474070510.076, -0.0128712551668286, -0.0757111981511116, 0.107763580977917, 32775, 31975, 23287, NaN
1474070511.076, -0.0169698670506477, -0.075870580971241, 0.107326813042164, 32781, 31975, 23278, NaN
1474070512.076, -0.0218105763196945, -0.0763214826583862, 0.10754819214344, 32760, 31963, 23280, 167.59211730957
1474070513.076, -0.0239525306969881, -0.0756182074546814, 0.108139894902706, 32788, 31965, 23268, NaN
1474070514.076, -0.0183611661195755, -0.0753243193030357, 0.107831344008446, 32796, 31966, 23264, NaN
1474070515.076, -0.00720554869621992, -0.0746534466743469, 0.107646845281124, 32789, 31967, 23287, NaN
1474070516.076, 0.00311592896468937, -0.0750067085027695, 0.106819197535515, 32775, 31978, 23294, NaN
1474070517.076, 0.00282816775143147, -0.0753374397754669, 0.106383182108402, 32776, 31970, 23289, NaN
1474070518.076, -0.00415028445422649, -0.0758778303861618, 0.107063420116901, 32787, 31962, 23274, NaN
1474070519.076, -0.00963848456740379, -0.0762406662106514, 0.10724987834692, 32776, 31955, 23288, NaN
1474070520.076, -0.0114840678870678, -0.0761440694332123, 0.106933802366257, 32761, 31971, 23282, NaN
1474070521.076, -0.00944270845502615, -0.0753910392522812, 0.107157401740551, 32762, 31963, 23284, NaN
1474070522.084, -0.00372450146824121, -0.0740112960338593, 0.106987684965134, 32780, 31977, 23286, NaN
1474070523.084, 0.00110011477954686, -0.0734175592660904, 0.106753632426262, 32769, 31977, 23292, NaN
1474070524.084, 0.00236482615582645, -0.0725037381052971, 0.106340810656548, 32792, 31990, 23284, NaN
1474070525.084, -0.00390054774470627, -0.0729512348771095, 0.105787537992001, 32774, 31969, 23297, NaN
1474070525.084, -0.011964987963438, -0.073529951274395, 0.105834700167179, 32796, 31970, 23280, NaN
1474070526.092, -0.0155619792640209, -0.0727695301175117, 0.106429845094681, 32781, 31963, 23274, NaN
1474070527.092, -0.0110930595546961, -0.0726381838321686, 0.107086628675461, 32764, 31961, 23270, NaN
1474070528.092, 0.000973238493315876, -0.0723836496472359, 0.107140831649303, 32782, 31966, 23254, NaN
1474070529.092, 0.0152732497081161, -0.0711680725216866, 0.106590382754803, 32755, 31977, 23293, NaN
1474070530.092, 0.0221242606639862, -0.0707585588097572, 0.106801204383373, 32790, 31981, 23299, NaN
1474070531.092, 0.0171679574996233, -0.0703553333878517, 0.106316693127155, 32778, 31968, 23289, NaN
1474070532.092, 0.00874019227921963, -0.0707163438200951, 0.105180621147156, 32798, 31961, 23275, NaN
1474070533.092, 0.00411808025091887, -0.0707400441169739, 0.103859834372997, 32789, 31964, 23268, NaN
1474070534.092, 0.00545692211017013, -0.0706131085753441, 0.103474974632263, 32784, 31958, 23274, NaN
1474070535.092, 0.00909078121185303, -0.0706276074051857, 0.103554114699364, 32770, 31968, 23289, NaN
1474070536.092, 0.00775741413235664, -0.0700329095125198, 0.103812202811241, 32773, 31973, 23286, NaN
1474070537.092, 0.00446160417050123, -0.0698021948337555, 0.104049436748028, 32758, 31984, 23284, NaN
1474070538.092, 0.00269984849728644, -0.0696179568767548, 0.10333464294672, 32784, 31977, 23278, NaN
1474070539.092, 0.000677868723869324, -0.068887010216713, 0.102593474090099, 32787, 31978, 23291, NaN
1474070540.092, -0.00423913821578026, -0.069740928709507, 0.101796180009842, 32770, 31973, 23267, NaN
1474070541.092, -0.00568779371678829, -0.0705190077424049, 0.102032601833344, 32775, 31970, 23274, NaN
1474070542.092, 0.00276303174905479, -0.0708713978528976, 0.102161593735218, 32753, 31969, 23275, NaN
1474070543.092, 0.0160429663956165, -0.0699383243918419, 0.101669192314148, 32773, 31995, 23283, NaN
1474070544.092, 0.0225222576409578, -0.0698440000414848, 0.101507224142551, 32793, 31987, 23281, NaN
1474070545.092, 0.015874233096838, -0.0700060799717903, 0.101519793272018, 32780, 31975, 23298, NaN
1474070546.092, -0.000117221927212086, -0.069850817322731, 0.101135082542896, 32777, 31975, 23284, NaN
1474070547.092, -0.0130997374653816, -0.0701763480901718, 0.100801825523376, 32775, 31968, 23278, NaN
1474070548.092, -0.0169245097786188, -0.0712054818868637, 0.101004838943481, 32776, 31975, 23262, NaN
1474070549.092, -0.0134764825925231, -0.0705389454960823, 0.101334929466248, 32778, 31973, 23279, NaN
1474070550.1, -0.00874053593724966, -0.0707146972417831, 0.101490087807178, 32782, 31972, 23279, NaN
1474070551.1, -0.00436985399574041, -0.0710608437657356, 0.101514004170895, 32773, 31977, 23288, NaN
1474070552.1, -0.000579153536818922, -0.0711963921785355, 0.10087177157402, 32784, 31972, 23275, NaN
1474070553.1, 8.81312153069302e-05, -0.071583166718483, 0.100828066468239, 32790, 31968, 23282, NaN
1474070553.1, -0.00158106023445725, -0.0719023644924164, 0.100631520152092, 32774, 31976, 23271, NaN
1474070554.108, -0.00349210225977004, -0.0708981901407242, 0.100262485444546, 32779, 31983, 23291, NaN
1474070555.108, -0.00242758076637983, -0.0709302425384521, 0.100629724562168, 32759, 31974, 23271, NaN
1474070556.108, 0.00343126361258328, -0.0713837072253227, 0.101311735808849, 32768, 31979, 23283, NaN
1474070557.108, 0.0104684680700302, -0.070803128182888, 0.101996354758739, 32773, 31977, 23282, NaN
1474070557.108, 0.016023401170969, -0.0705121010541916, 0.102163419127464, 32768, 31988, 23287, NaN
1474070558.114, 0.0227207504212856, -0.0710215270519257, 0.101349093019962, 32767, 31984, 23287, NaN
1474070559.114, 0.0312025770545006, -0.0709568485617638, 0.10111128538847, 32777, 31971, 23275, NaN
1474070560.114, 0.037047017365694, -0.0713005214929581, 0.100345149636269, 32801, 31967, 23284, NaN
1474070561.114, 0.0387913845479488, -0.0714940205216408, 0.100739076733589, 32789, 31979, 23288, NaN
1474070562.114, 0.0389232449233532, -0.0716560482978821, 0.101300619542599, 32778, 31986, 23276, NaN
1474070563.114, 0.0406427085399628, -0.0718565136194229, 0.101449601352215, 32764, 31975, 23280, NaN
1474070564.114, 0.040802076458931, -0.0715236738324165, 0.102119326591492, 32781, 31986, 23290, NaN
1474070565.114, 0.0394637994468212, -0.0723377913236618, 0.102823793888092, 32777, 31977, 23277, NaN
1474070566.114, 0.0390747711062431, -0.0717073753476143, 0.103113390505314, 32796, 31979, 23261, NaN
1474070567.114, 0.0393194109201431, -0.0718675032258034, 0.103235609829426, 32783, 31984, 23285, NaN
1474070568.114, 0.0360314287245274, -0.0718203336000443, 0.102552987635136, 32786, 31973, 23287, NaN
1474070569.114, 0.0302731916308403, -0.0721204653382301, 0.102340593934059, 32787, 31976, 23278, 168.721267700195
1474070570.114, 0.029420156031847, -0.0722758993506432, 0.102655991911888, 32780, 31977, 23272, NaN
1474070571.114, 0.0342175625264645, -0.0726840645074844, 0.103193536400795, 32770, 31978, 23281, NaN
1474070572.114, 0.015303261578083, -0.0721290484070778, 0.103541731834412, 32773, 31995, 23292, NaN
1474070573.114, -0.00999822933226824, -0.071312390267849, 0.104586474597454, 32786, 31968, 23287, NaN
1474070574.114, -0.0303145293146372, -0.0710140392184258, 0.105975091457367, 32775, 31966, 23288, NaN
1474070575.114, -0.0461516156792641, -0.0712631344795227, 0.106035210192204, 32764, 31969, 23275, NaN
1474070576.114, -0.0579963102936745, -0.0707891136407852, 0.105950184166431, 32768, 31982, 23294, NaN
1474070576.114, -0.0663143694400787, -0.0711167082190514, 0.105461969971657, 32777, 31995, 23286, NaN
1474070577.122, -0.0715487599372864, -0.0713691338896751, 0.106097392737865, 32775, 31969, 23271, NaN
1474070578.122, -0.0741181597113609, -0.0720899179577827, 0.106528222560883, 32790, 31982, 23273, NaN
1474070579.122, -0.0744156837463379, -0.0719980597496033, 0.106292918324471, 32783, 31978, 23266, NaN
1474070580.122, -0.0728079453110695, -0.0715526416897774, 0.106783822178841, 32789, 31980, 23277, NaN
1474070580.122, -0.0696343705058098, -0.0707872658967972, 0.106719225645065, 32772, 31986, 23284, NaN
1474070581.13, -0.0652068108320236, -0.0704129338264465, 0.106346122920513, 32790, 31981, 23284, NaN
1474070582.13, -0.059809435158968, -0.0706467404961586, 0.106497190892696, 32789, 31990, 23283, NaN
1474070583.13, -0.055670503526926, -0.0703182518482208, 0.106604844331741, 32785, 31986, 23283, NaN
1474070584.13, -0.0558252781629562, -0.070871114730835, 0.106438003480434, 32764, 31975, 23280, NaN
1474070584.13, -0.0481565855443478, -0.0715288296341896, 0.105503499507904, 32763, 31976, 23266, NaN
1474070585.136, -0.0320876725018024, -0.0719488933682442, 0.105383418500423, 32767, 31974, 23287, NaN
1474070586.136, -0.0210319478064775, -0.0718817263841629, 0.105207890272141, 32780, 31985, 23291, NaN
1474070587.136, -0.0150838773697615, -0.0720341950654984, 0.104922860860825, 32788, 31998, 23287, NaN
1474070588.136, -0.0092769917100668, -0.0720740407705307, 0.105364546179771, 32775, 31989, 23301, NaN
1474070589.136, -0.0080682598054409, -0.0719959810376167, 0.105994798243046, 32780, 31980, 23292, NaN
1474070590.116, -0.0137305799871683, -0.0731568187475204, 0.106278851628304, 32792, 31985, 23282, NaN
1474070591.116, -0.0194362122565508, -0.0733129531145096, 0.106580704450607, 32785, 31986, 23273, NaN
1474070592.116, -0.0153318215161562, -0.0727288872003555, 0.10640449821949, 32748, 31975, 23276, NaN
1474070593.116, 0.00422619748860598, -0.0717003121972084, 0.106991566717625, 32770, 31971, 23264, NaN
1474070594.116, 0.0291941799223423, -0.0717810243368149, 0.107068225741386, 32784, 31991, 23283, NaN
1474070595.116, 0.0420262105762959, -0.0712993964552879, 0.106508433818817, 32794, 31990, 23294, NaN
1474070596.116, 0.0369241759181023, -0.0703203678131104, 0.107086598873138, 32805, 31999, 23290, NaN
1474070597.116, 0.0221167914569378, -0.0705087259411812, 0.106864213943481, 32777, 31984, 23294, NaN
1474070598.116, 0.00765737192705274, -0.071767121553421, 0.10659297555685, 32775, 32000, 23266, NaN
1474070599.116, 0.00682891020551324, -0.0728087201714516, 0.106974013149738, 32774, 31969, 23257, NaN
1474070600.116, 0.0212798360735178, -0.0718228593468666, 0.107369974255562, 32783, 31967, 23267, NaN
1474070601.116, 0.0388020351529121, -0.0706345289945602, 0.107188209891319, 32777, 31979, 23283, NaN
1474070602.116, 0.0400890968739986, -0.0691417753696442, 0.107166267931461, 32794, 32000, 23304, NaN
1474070602.116, 0.0237709581851959, -0.0691162496805191, 0.107040017843246, 32770, 31994, 23291, NaN
1474070603.124, 0.00512741599231958, -0.0706674829125404, 0.10663253068924, 32787, 31999, 23262, NaN
1474070604.124, 0.000251672754529864, -0.0718736797571182, 0.105892546474934, 32789, 31975, 23257, NaN
1474070605.124, 0.00971184112131596, -0.0713636502623558, 0.105812698602676, 32788, 31979, 23283, NaN
1474070606.124, 0.0251831710338593, -0.0700557753443718, 0.105872564017773, 32780, 31977, 23278, NaN
1474070606.124, 0.0378356799483299, -0.0697937309741974, 0.106608353555202, 32786, 31995, 23304, NaN
1474070607.132, 0.0439092814922333, -0.069397859275341, 0.107090339064598, 32777, 31992, 23284, NaN
1474070608.132, 0.0400004088878632, -0.069082535803318, 0.107262790203094, 32779, 31997, 23292, NaN
1474070609.132, 0.0269350092858076, -0.0691007673740387, 0.106227986514568, 32792, 32000, 23291, NaN
1474070610.132, 0.0101748434826732, -0.0700247958302498, 0.105919651687145, 32769, 31976, 23281, NaN
1474070610.132, 0.00301535683684051, -0.0707566812634468, 0.106178499758244, 32765, 31977, 23274, NaN
1474070611.138, 0.00790381245315075, -0.0710707232356071, 0.1064158603549, 32767, 31971, 23264, NaN
1474070612.138, 0.0207445360720158, -0.0701604932546616, 0.106212250888348, 32786, 31984, 23278, NaN
1474070613.138, 0.0320709012448788, -0.0695773065090179, 0.106068037450314, 32782, 31998, 23277, NaN
1474070614.138, 0.0334160774946213, -0.0686963126063347, 0.105608396232128, 32790, 31986, 23295, NaN
1474070615.138, 0.0278414394706488, -0.0692821070551872, 0.105614013969898, 32786, 32001, 23272, NaN
1474070616.118, 0.0245285276323557, -0.0695077478885651, 0.105460934340954, 32779, 31979, 23270, NaN
1474070617.118, 0.0290807671844959, -0.0702866241335869, 0.105985134840012, 32783, 31983, 23269, NaN